Location: Huntsville
(41.2590°N, 111.7678°W)
Time: 23:03:15
(UTC+00:00)

SR - Pass Details

Date: 20 June 2021
Orbit: 577 x 878 km, 66.7° (Epoch: 29 July)

Event Time Altitude Azimuth Distance (km) Brightness Sun altitude
Rises 10:18:22 0° 310° (NW) 3,205 ? -14.3°
Reaches altitude 10° 10:22:13 10° 283° (WNW) 2,197 ? -13.8°
Enters shadow 10:24:01 12° 261° (W) 1,993 ? -13.6°
